Weather History for Miramar MCAS, CA

Change the Weather History Date:

Tuesday, November 6, 2012

  Actual Average Record
Temperature  
Mean Temperature 66 °F -  
Max Temperature 80 °F 68 °F 90 °F (2006)
Min Temperature 52 °F 48 °F 45 °F (1996)
Cooling Degree Days 1    
Growing Degree Days 16 (Base 50)    
Moisture  
Dew Point 46 °F    
Average Humidity 58    
Maximum Humidity 93    
Minimum Humidity 24    
Precipitation  
Precipitation 0.00 in - - ()
Sea Level Pressure  
Sea Level Pressure 30.04 in    
Wind  
Wind Speed 3 mph (WSW)    
Max Wind Speed 8 mph    
Max Gust Speed -    
Visibility 8 miles    
Events Fog    
Averages and records for this station are not official NWS values.
T = Trace of Precipitation, MM = Missing Value Source: NWS Daily Summary

Daily Weather History Graph

Daily Weather History Graph

Search for Another Location

Airport:

Trip Planner

Search our weather history database for the weather conditions in past years. The results will help you decide how hot, cold, wet, or windy it might be!

Date:

Astronomy

Nov. 06, 2012 Rise Set
Actual Time 6:11 AM PST 4:52 PM PST
Civil Twilight 5:45 AM PST 5:18 PM PST
Nautical Twilight 5:16 AM PST 5:47 PM PST
Astronomical Twilight 4:47 AM PST 6:16 PM PST
Moon 11:32 PM PST (11/6) 12:08 PM PST (11/6)
Length of Visible Light 11h 32m
Length of Day
10h 41m
Waning Gibbous, 52% of the Moon is Illuminated
Nov 6
Waning Gibbous
Nov 6
Last Quarter
Nov 13
New
Nov 20
First Quarter
Nov 28
Full

Hourly Weather History & Observations

Time (PST) Temp. Dew Point Humidity Pressure Visibility Wind Dir Wind Speed Gust Speed Precip Events Conditions
12:55 AM 54.0 °F 39.0 °F 57% 30.03 in 10.0 mi Calm Calm - N/A   Clear
1:55 AM 57.0 °F 39.9 °F 53% 30.02 in 10.0 mi Calm Calm - N/A   Clear
2:55 AM 55.9 °F 39.0 °F 53% 30.02 in 10.0 mi SSE 4.6 mph - N/A   Clear
3:55 AM 53.1 °F 39.0 °F 59% 30.03 in 10.0 mi SSE 3.5 mph - N/A   Partly Cloudy
4:55 AM 52.0 °F 39.0 °F 61% 30.04 in 10.0 mi SE 4.6 mph - N/A   Partly Cloudy
5:55 AM 53.1 °F 36.0 °F 52% 30.05 in 10.0 mi East 6.9 mph - N/A   Partly Cloudy
6:55 AM 57.9 °F 36.0 °F 44% 30.06 in 10.0 mi ENE 5.8 mph - N/A   Partly Cloudy
7:55 AM 72.0 °F 36.0 °F 27% 30.07 in 10.0 mi Calm Calm - N/A   Clear
8:55 AM 75.9 °F 37.0 °F 24% 30.07 in 10.0 mi South 3.5 mph - N/A   Clear
9:55 AM 77.0 °F 43.0 °F 30% 30.07 in 10.0 mi Variable 5.8 mph - N/A   Clear
10:55 AM 77.0 °F 45.0 °F 32% 30.06 in 10.0 mi SW 5.8 mph - N/A   Clear
11:55 AM 79.0 °F 44.1 °F 29% 30.03 in 10.0 mi WSW 6.9 mph - N/A   Clear
12:55 PM 80.1 °F 46.0 °F 30% 30.01 in 10.0 mi WSW 8.1 mph - N/A   Clear
1:55 PM 79.0 °F 39.9 °F 25% 30.00 in 10.0 mi WNW 8.1 mph - N/A   Partly Cloudy
2:55 PM 79.0 °F 44.1 °F 29% 30.01 in 10.0 mi WNW 5.8 mph - N/A   Clear
3:55 PM 77.0 °F 41.0 °F 28% 30.01 in 10.0 mi West 5.8 mph - N/A   Clear
4:55 PM 70.0 °F 45.0 °F 41% 30.01 in 10.0 mi SW 3.5 mph - N/A   Clear
5:55 PM 63.0 °F 53.1 °F 70% 30.03 in 10.0 mi West 4.6 mph - N/A   Partly Cloudy
6:55 PM 59.0 °F 50.0 °F 72% 30.03 in 10.0 mi Calm Calm - N/A   Partly Cloudy
7:55 PM 57.9 °F 50.0 °F 75% 30.04 in 10.0 mi Calm Calm - N/A   Partly Cloudy
8:55 PM 55.0 °F 44.1 °F 67% 30.05 in 10.0 mi Calm Calm - N/A   Partly Cloudy
9:18 PM 55.4 °F 44.6 °F 67% 30.07 in 3.0 mi WSW 3.5 mph - N/A   Scattered Clouds
9:39 PM 57.2 °F 51.8 °F 82% 30.07 in 0.2 mi West 3.5 mph - N/A Fog Fog
9:55 PM 59.0 °F 55.9 °F 90% 30.05 in 0.2 mi West 3.5 mph - N/A Fog Fog
10:40 PM 60.8 °F 57.2 °F 88% 30.07 in 0.5 mi Calm Calm - N/A Fog Fog
10:55 PM 60.1 °F 57.9 °F 93% 30.06 in 0.8 mi North 4.6 mph - N/A   Mist
11:03 PM 60.8 °F 57.2 °F 88% 30.07 in 1.0 mi North 3.5 mph - N/A   Mist
11:32 PM 60.8 °F 57.2 °F 88% 30.07 in 2.5 mi Calm Calm - N/A   Overcast
11:40 PM 60.8 °F 57.2 °F 88% 30.08 in 3.0 mi Calm Calm - N/A   Overcast
11:55 PM 59.0 °F 57.0 °F 93% 30.06 in 3.0 mi Calm Calm - N/A   Overcast